Time,TemperatureF,DewpointF,PressureIn,WindDirection,WindDirectionDegrees,WindSpeedMPH,WindSpeedGustMPH,Humidity,HourlyPrecipIn,Conditions,Clouds,dailyrainin,SoftwareType,DateUTC
2013-02-02 00:03:00,13.2,5.3,26.64,NW,315,8.0,11.8,70,0.00,,,0.00,WUHU216HW,2013-02-02 05:03:00,
2013-02-02 00:08:00,13.2,5.3,26.64,WNW,293,10.2,10.2,70,0.00,,,0.00,WUHU216HW,2013-02-02 05:08:00,
2013-02-02 00:13:00,13.2,5.3,26.64,NW,315,5.3,10.2,70,0.00,,,0.00,WUHU216HW,2013-02-02 05:13:00,
2013-02-02 00:18:00,13.4,5.5,26.64,NNW,338,5.8,10.2,70,0.00,,,0.00,WUHU216HW,2013-02-02 05:18:00,
2013-02-02 00:23:00,13.6,5.7,26.63,NW,315,6.9,8.2,70,0.00,,,0.00,WUHU216HW,2013-02-02 05:23:00,
2013-02-02 00:28:00,13.6,5.7,26.63,WNW,293,7.3,8.2,70,0.00,,,0.00,WUHU216HW,2013-02-02 05:28:00,
2013-02-02 00:33:00,13.6,5.7,26.63,NW,315,6.2,7.3,70,0.00,,,0.00,WUHU216HW,2013-02-02 05:33:00,
2013-02-02 00:38:00,13.6,5.7,26.63,NNW,338,6.7,12.7,70,0.00,,,0.00,WUHU216HW,2013-02-02 05:38:00,
2013-02-02 00:43:00,13.6,5.7,26.63,NW,315,8.5,12.7,70,0.00,,,0.00,WUHU216HW,2013-02-02 05:43:00,
2013-02-02 00:48:00,13.6,5.7,26.62,NNW,338,4.6,8.5,70,0.00,,,0.00,WUHU216HW,2013-02-02 05:48:00,
2013-02-02 00:53:00,13.6,5.7,26.63,NW,315,6.0,8.5,70,0.00,,,0.00,WUHU216HW,2013-02-02 05:53:00,
2013-02-02 00:58:00,13.6,5.7,26.63,WNW,293,8.2,8.2,70,0.00,,,0.00,WUHU216HW,2013-02-02 05:58:00,
2013-02-02 01:03:00,13.6,5.7,26.63,WNW,293,7.8,8.2,70,0.00,,,0.00,WUHU216HW,2013-02-02 06:03:00,
2013-02-02 01:08:00,13.6,6.0,26.64,NW,315,6.9,8.5,71,0.00,,,0.00,WUHU216HW,2013-02-02 06:08:00,
2013-02-02 01:13:00,13.6,6.0,26.64,NNW,338,5.5,10.0,71,0.00,,,0.00,WUHU216HW,2013-02-02 06:13:00,
2013-02-02 01:18:00,13.8,6.1,26.63,WNW,293,6.4,10.0,71,0.00,,,0.00,WUHU216HW,2013-02-02 06:18:00,
2013-02-02 01:23:00,13.8,6.1,26.63,NW,315,3.8,8.7,71,0.00,,,0.00,WUHU216HW,2013-02-02 06:23:00,
2013-02-02 01:28:00,13.6,6.0,26.63,NW,315,7.6,8.7,71,0.00,,,0.00,WUHU216HW,2013-02-02 06:28:00,
2013-02-02 01:33:00,13.6,6.0,26.62,NNW,338,7.1,7.6,71,0.00,,,0.00,WUHU216HW,2013-02-02 06:33:00,
2013-02-02 01:38:00,13.6,6.0,26.62,NW,315,4.6,7.6,71,0.00,,,0.00,WUHU216HW,2013-02-02 06:38:00,
2013-02-02 01:43:00,13.6,6.0,26.62,NW,315,2.0,7.1,71,0.00,,,0.00,WUHU216HW,2013-02-02 06:43:00,
2013-02-02 01:48:00,13.6,6.0,26.62,WNW,293,5.3,5.3,71,0.00,,,0.00,WUHU216HW,2013-02-02 06:48:00,
2013-02-02 01:53:00,13.6,6.0,26.62,West,270,1.3,5.3,71,0.00,,,0.00,WUHU216HW,2013-02-02 06:53:00,
2013-02-02 01:58:00,13.6,6.0,26.61,West,270,0.0,1.3,71,0.00,,,0.00,WUHU216HW,2013-02-02 06:58:00,
2013-02-02 02:03:00,13.6,6.0,26.62,NW,315,3.8,5.8,71,0.00,,,0.00,WUHU216HW,2013-02-02 07:03:00,
2013-02-02 02:08:00,13.6,6.0,26.61,WNW,293,0.0,5.8,71,0.00,,,0.00,WUHU216HW,2013-02-02 07:08:00,
2013-02-02 02:13:00,13.6,6.0,26.61,WNW,293,0.0,0.0,71,0.00,,,0.00,WUHU216HW,2013-02-02 07:13:00,
2013-02-02 02:18:00,13.6,6.0,26.61,WNW,293,0.0,0.0,71,0.00,,,0.00,WUHU216HW,2013-02-02 07:18:00,
2013-02-02 02:23:00,13.6,6.0,26.61,WNW,293,0.0,0.0,71,0.00,,,0.00,WUHU216HW,2013-02-02 07:23:00,
2013-02-02 02:28:00,13.6,6.0,26.61,NW,315,0.0,0.0,71,0.00,,,0.00,WUHU216HW,2013-02-02 07:28:00,
2013-02-02 02:33:00,13.6,6.0,26.60,NW,315,0.0,0.0,71,0.00,,,0.00,WUHU216HW,2013-02-02 07:33:00,
2013-02-02 02:38:00,13.6,6.0,26.61,WNW,293,2.4,2.4,71,0.00,,,0.00,WUHU216HW,2013-02-02 07:38:00,
2013-02-02 02:43:00,13.6,6.0,26.61,West,270,6.9,6.9,71,0.00,,,0.00,WUHU216HW,2013-02-02 07:43:00,
2013-02-02 02:48:00,13.6,6.0,26.62,WNW,293,3.8,6.9,71,0.00,,,0.00,WUHU216HW,2013-02-02 07:48:00,
2013-02-02 02:53:00,13.6,6.0,26.61,NW,315,6.7,6.9,71,0.00,,,0.00,WUHU216HW,2013-02-02 07:53:00,
2013-02-02 02:58:00,13.6,6.0,26.62,WNW,293,0.6,6.7,71,0.00,,,0.00,WUHU216HW,2013-02-02 07:58:00,
2013-02-02 03:05:00,13.8,6.1,26.62,WNW,293,3.3,6.7,71,0.00,,,0.00,WUHU216HW,2013-02-02 08:05:00,
2013-02-02 03:15:00,14.0,6.0,26.62,WNW,293,0.0,1.1,70,0.00,,,0.00,WUHU216HW,2013-02-02 08:15:00,
2013-02-02 03:20:00,14.1,6.2,26.62,West,270,3.8,3.8,70,0.00,,,0.00,WUHU216HW,2013-02-02 08:20:00,
2013-02-02 03:25:00,14.1,6.2,26.62,West,270,0.0,4.0,70,0.00,,,0.00,WUHU216HW,2013-02-02 08:25:00,
2013-02-02 03:30:00,14.1,6.2,26.62,West,270,1.3,4.0,70,0.00,,,0.00,WUHU216HW,2013-02-02 08:30:00,
2013-02-02 03:35:00,14.1,5.9,26.62,West,270,0.0,1.3,69,0.00,,,0.00,WUHU216HW,2013-02-02 08:35:00,
2013-02-02 03:40:00,14.1,5.9,26.62,West,270,2.4,2.4,69,0.00,,,0.00,WUHU216HW,2013-02-02 08:40:00,
2013-02-02 03:45:00,14.1,5.9,26.62,West,270,3.5,3.5,69,0.00,,,0.00,WUHU216HW,2013-02-02 08:45:00,
2013-02-02 03:50:00,14.1,5.9,26.62,WNW,293,1.7,3.5,69,0.00,,,0.00,WUHU216HW,2013-02-02 08:50:00,
2013-02-02 03:55:00,14.1,5.9,26.62,West,270,1.1,3.5,69,0.00,,,0.00,WUHU216HW,2013-02-02 08:55:00,
2013-02-02 04:00:00,14.1,5.9,26.62,West,270,0.0,1.5,69,0.00,,,0.00,WUHU216HW,2013-02-02 09:00:00,
2013-02-02 04:05:00,14.0,5.7,26.61,West,270,0.0,1.1,69,0.00,,,0.00,WUHU216HW,2013-02-02 09:05:00,
2013-02-02 04:10:00,14.0,5.7,26.61,North,0,0.0,0.0,69,0.00,,,0.00,WUHU216HW,2013-02-02 09:10:00,
2013-02-02 04:15:00,14.1,5.9,26.61,West,270,3.5,3.5,69,0.00,,,0.00,WUHU216HW,2013-02-02 09:15:00,
2013-02-02 04:20:00,14.0,5.7,26.61,West,270,2.0,3.5,69,0.00,,,0.00,WUHU216HW,2013-02-02 09:20:00,
2013-02-02 04:25:00,14.1,5.5,26.61,WNW,293,6.2,6.2,68,0.00,,,0.00,WUHU216HW,2013-02-02 09:25:00,
2013-02-02 04:30:00,14.1,5.5,26.61,West,270,2.2,6.2,68,0.00,,,0.00,WUHU216HW,2013-02-02 09:30:00,
2013-02-02 04:35:00,14.1,5.5,26.61,WNW,293,4.0,6.2,68,0.00,,,0.00,WUHU216HW,2013-02-02 09:35:00,
2013-02-02 04:40:00,14.3,5.7,26.61,WNW,293,4.0,6.2,68,0.00,,,0.00,WUHU216HW,2013-02-02 09:40:00,
2013-02-02 04:45:00,14.3,5.7,26.61,WNW,293,1.5,5.3,68,0.00,,,0.00,WUHU216HW,2013-02-02 09:45:00,
2013-02-02 04:50:00,14.5,5.5,26.61,WSW,248,2.0,6.4,67,0.00,,,0.00,WUHU216HW,2013-02-02 09:50:00,
2013-02-02 04:55:00,14.7,5.1,26.61,West,270,0.0,6.4,66,0.00,,,0.00,WUHU216HW,2013-02-02 09:55:00,
2013-02-02 05:00:00,14.7,5.3,26.61,West,270,0.0,0.0,66,0.00,,,0.00,WUHU216HW,2013-02-02 10:00:00,
2013-02-02 05:05:00,14.5,5.1,26.61,West,270,0.0,0.0,66,0.00,,,0.00,WUHU216HW,2013-02-02 10:05:00,
2013-02-02 05:10:00,14.5,5.1,26.61,West,270,0.0,0.0,66,0.00,,,0.00,WUHU216HW,2013-02-02 10:10:00,
2013-02-02 05:15:00,14.5,4.8,26.61,West,270,0.0,0.0,65,0.00,,,0.00,WUHU216HW,2013-02-02 10:15:00,
2013-02-02 05:20:00,14.5,4.8,26.61,West,270,0.0,0.0,65,0.00,,,0.00,WUHU216HW,2013-02-02 10:20:00,
2013-02-02 05:25:00,14.9,4.8,26.61,West,270,0.0,2.0,64,0.00,,,0.00,WUHU216HW,2013-02-02 10:25:00,
2013-02-02 05:30:00,15.0,4.6,26.61,West,270,0.0,2.0,63,0.00,,,0.00,WUHU216HW,2013-02-02 10:30:00,
2013-02-02 05:35:00,15.2,4.4,26.61,West,270,0.0,0.0,62,0.00,,,0.00,WUHU216HW,2013-02-02 10:35:00,
2013-02-02 05:40:00,15.4,4.6,26.61,West,270,0.0,0.0,62,0.00,,,0.00,WUHU216HW,2013-02-02 10:40:00,
2013-02-02 05:45:00,15.4,4.6,26.61,SW,225,0.0,0.0,62,0.00,,,0.00,WUHU216HW,2013-02-02 10:45:00,
2013-02-02 05:50:00,15.4,4.6,26.61,South,180,5.5,5.5,62,0.00,,,0.00,WUHU216HW,2013-02-02 10:50:00,
2013-02-02 05:55:00,15.0,4.3,26.61,South,180,4.9,5.5,62,0.00,,,0.00,WUHU216HW,2013-02-02 10:55:00,
2013-02-02 06:00:00,15.0,3.9,26.61,South,180,2.6,5.1,61,0.00,,,0.00,WUHU216HW,2013-02-02 11:00:00,
2013-02-02 06:05:00,15.0,3.9,26.61,South,180,1.3,4.9,61,0.00,,,0.00,WUHU216HW,2013-02-02 11:05:00,
2013-02-02 06:10:00,15.2,4.1,26.61,South,180,0.0,2.6,61,0.00,,,0.00,WUHU216HW,2013-02-02 11:10:00,
2013-02-02 06:15:00,15.2,4.1,26.61,South,180,0.0,0.0,61,0.00,,,0.00,WUHU216HW,2013-02-02 11:15:00,
2013-02-02 06:20:00,15.6,4.1,26.62,South,180,0.0,0.0,60,0.00,,,0.00,WUHU216HW,2013-02-02 11:20:00,
2013-02-02 06:25:00,15.6,4.1,26.61,South,180,0.0,0.0,60,0.00,,,0.00,WUHU216HW,2013-02-02 11:25:00,
2013-02-02 06:31:00,15.8,3.9,26.61,South,180,0.0,0.0,59,0.00,,,0.00,WUHU216HW,2013-02-02 11:31:00,
2013-02-02 06:36:00,16.3,4.4,26.61,South,180,0.0,0.0,59,0.00,,,0.00,WUHU216HW,2013-02-02 11:36:00,
2013-02-02 06:41:00,16.3,4.0,26.61,South,180,0.0,0.0,58,0.00,,,0.00,WUHU216HW,2013-02-02 11:41:00,
2013-02-02 06:46:00,16.3,3.6,26.61,South,180,0.0,0.0,57,0.00,,,0.00,WUHU216HW,2013-02-02 11:46:00,
2013-02-02 06:51:00,16.3,3.6,26.62,South,180,3.1,3.1,57,0.00,,,0.00,WUHU216HW,2013-02-02 11:51:00,
2013-02-02 06:56:00,16.1,3.8,26.61,South,180,2.9,3.1,58,0.00,,,0.00,WUHU216HW,2013-02-02 11:56:00,
2013-02-02 07:01:00,15.9,3.6,26.61,SSE,158,0.0,3.1,58,0.00,,,0.00,WUHU216HW,2013-02-02 12:01:00,
2013-02-02 07:06:00,16.1,3.8,26.62,SSE,158,1.7,4.0,58,0.00,,,0.00,WUHU216HW,2013-02-02 12:06:00,
2013-02-02 07:11:00,16.1,3.4,26.61,South,180,2.9,4.2,57,0.00,,,0.00,WUHU216HW,2013-02-02 12:11:00,
2013-02-02 07:16:00,16.3,3.6,26.62,SSE,158,0.0,4.2,57,0.00,,,0.00,WUHU216HW,2013-02-02 12:16:00,
2013-02-02 07:21:00,16.5,3.4,26.62,SSE,158,0.0,0.0,56,0.00,,,0.00,WUHU216HW,2013-02-02 12:21:00,
2013-02-02 07:26:00,16.7,3.2,26.62,SSW,203,0.0,0.0,55,0.00,,,0.00,WUHU216HW,2013-02-02 12:26:00,
2013-02-02 07:31:00,16.7,3.6,26.62,SSE,158,6.7,6.7,56,0.00,,,0.00,WUHU216HW,2013-02-02 12:31:00,
2013-02-02 07:36:00,16.5,3.4,26.62,South,180,5.1,6.9,56,0.00,,,0.00,WUHU216HW,2013-02-02 12:36:00,
2013-02-02 07:41:00,16.5,3.4,26.62,South,180,7.1,7.1,56,0.00,,,0.00,WUHU216HW,2013-02-02 12:41:00,
2013-02-02 07:46:00,16.7,3.6,26.62,SSE,158,7.1,7.6,56,0.00,,,0.00,WUHU216HW,2013-02-02 12:46:00,
2013-02-02 07:51:00,16.8,3.7,26.62,SSE,158,8.9,8.9,56,0.00,,,0.00,WUHU216HW,2013-02-02 12:51:00,
2013-02-02 07:56:00,16.8,3.7,26.62,SSE,158,8.2,8.9,56,0.00,,,0.00,WUHU216HW,2013-02-02 12:56:00,
2013-02-02 08:01:00,17.2,4.1,26.62,SSE,158,7.8,8.9,56,0.00,,,0.00,WUHU216HW,2013-02-02 13:01:00,
2013-02-02 08:06:00,17.4,4.3,26.62,SSE,158,8.2,8.7,56,0.00,,,0.00,WUHU216HW,2013-02-02 13:06:00,
2013-02-02 08:11:00,17.7,4.6,26.62,SSE,158,7.6,8.7,56,0.00,,,0.00,WUHU216HW,2013-02-02 13:11:00,
2013-02-02 08:16:00,18.1,4.9,26.62,SSE,158,10.7,10.7,56,0.00,,,0.00,WUHU216HW,2013-02-02 13:16:00,
2013-02-02 08:21:00,18.1,5.5,26.62,SSE,158,13.6,13.6,57,0.00,,,0.00,WUHU216HW,2013-02-02 13:21:00,
2013-02-02 08:26:00,18.1,5.3,26.61,SSE,158,12.0,13.6,57,0.00,,,0.00,WUHU216HW,2013-02-02 13:26:00,
2013-02-02 08:31:00,17.7,5.4,26.61,SSE,158,12.5,13.6,58,0.00,,,0.00,WUHU216HW,2013-02-02 13:31:00,
2013-02-02 08:36:00,17.7,5.4,26.62,SSE,158,12.5,12.9,58,0.00,,,0.00,WUHU216HW,2013-02-02 13:36:00,
2013-02-02 08:41:00,17.6,5.2,26.62,SSE,158,12.0,12.5,58,0.00,,,0.00,WUHU216HW,2013-02-02 13:41:00,
2013-02-02 08:46:00,17.7,5.8,26.61,SSE,158,12.9,12.9,59,0.00,,,0.00,WUHU216HW,2013-02-02 13:46:00,
2013-02-02 08:51:00,17.9,6.0,26.62,SSE,158,11.4,12.9,59,0.00,,,0.00,WUHU216HW,2013-02-02 13:51:00,
2013-02-02 08:56:00,18.3,6.3,26.62,SSE,158,12.3,12.9,59,0.00,,,0.00,WUHU216HW,2013-02-02 13:56:00,
2013-02-02 09:01:00,18.3,6.3,26.61,SSE,158,13.8,13.8,59,0.00,,,0.00,WUHU216HW,2013-02-02 14:01:00,
2013-02-02 09:06:00,18.3,6.3,26.61,SSE,158,12.5,13.8,59,0.00,,,0.00,WUHU216HW,2013-02-02 14:06:00,
2013-02-02 09:11:00,18.3,6.3,26.61,SSE,158,11.8,12.5,59,0.00,,,0.00,WUHU216HW,2013-02-02 14:11:00,
2013-02-02 09:16:00,18.5,6.8,26.61,SSE,158,10.0,12.5,60,0.00,,,0.00,WUHU216HW,2013-02-02 14:16:00,
2013-02-02 09:21:00,18.6,7.0,26.61,SSE,158,8.9,12.3,60,0.00,,,0.00,WUHU216HW,2013-02-02 14:21:00,
2013-02-02 09:26:00,18.8,7.2,26.61,SSE,158,10.2,12.3,60,0.00,,,0.00,WUHU216HW,2013-02-02 14:26:00,
2013-02-02 09:31:00,19.0,7.3,26.61,SSE,158,10.7,11.8,60,0.00,,,0.00,WUHU216HW,2013-02-02 14:31:00,
2013-02-02 09:36:00,19.2,7.5,26.61,SSE,158,11.8,11.8,60,0.00,,,0.00,WUHU216HW,2013-02-02 14:36:00,
2013-02-02 09:41:00,19.2,7.5,26.61,SSE,158,12.3,12.5,60,0.00,,,0.00,WUHU216HW,2013-02-02 14:41:00,
2013-02-02 09:46:00,19.5,7.8,26.61,SSE,158,12.0,12.5,60,0.00,,,0.00,WUHU216HW,2013-02-02 14:46:00,
2013-02-02 09:51:00,19.7,8.4,26.60,SSE,158,12.3,12.3,61,0.00,,,0.00,WUHU216HW,2013-02-02 14:51:00,
2013-02-02 09:56:00,19.9,8.5,26.60,SE,135,11.1,13.4,61,0.00,,,0.00,WUHU216HW,2013-02-02 14:56:00,
2013-02-02 10:01:00,20.3,9.2,26.59,SE,135,10.5,13.4,62,0.00,,,0.00,WUHU216HW,2013-02-02 15:01:00,
2013-02-02 10:06:00,20.8,9.8,26.59,SE,135,8.9,11.1,62,0.00,,,0.00,WUHU216HW,2013-02-02 15:06:00,
2013-02-02 10:11:00,21.5,10.5,26.59,SE,135,8.5,11.1,62,0.00,,,0.00,WUHU216HW,2013-02-02 15:11:00,
2013-02-02 10:17:00,21.9,10.8,26.58,SE,135,5.5,8.5,62,0.00,,,0.00,WUHU216HW,2013-02-02 15:17:00,
2013-02-02 10:22:00,22.2,11.1,26.58,SE,135,8.2,8.5,62,0.00,,,0.00,WUHU216HW,2013-02-02 15:22:00,
2013-02-02 10:27:00,22.6,11.3,26.58,SE,135,7.6,8.2,61,0.00,,,0.00,WUHU216HW,2013-02-02 15:27:00,
2013-02-02 10:32:00,22.8,11.3,26.57,SSE,158,8.7,8.7,61,0.00,,,0.00,WUHU216HW,2013-02-02 15:32:00,
2013-02-02 10:37:00,22.8,10.9,26.57,SE,135,0.6,9.6,60,0.00,,,0.00,WUHU216HW,2013-02-02 15:37:00,
2013-02-02 10:42:00,23.3,11.4,26.57,SE,135,7.1,9.6,60,0.00,,,0.00,WUHU216HW,2013-02-02 15:42:00,
2013-02-02 10:47:00,23.9,12.0,26.57,SE,135,6.2,9.3,60,0.00,,,0.00,WUHU216HW,2013-02-02 15:47:00,
2013-02-02 10:52:00,24.0,11.7,26.57,SSE,158,6.0,9.3,59,0.00,,,0.00,WUHU216HW,2013-02-02 15:52:00,
2013-02-02 10:57:00,24.4,12.1,26.57,SE,135,4.0,6.2,59,0.00,,,0.00,WUHU216HW,2013-02-02 15:57:00,
2013-02-02 11:02:00,24.6,12.3,26.56,SE,135,6.0,7.1,59,0.00,,,0.00,WUHU216HW,2013-02-02 16:02:00,
2013-02-02 11:07:00,25.1,12.8,26.56,SSW,203,2.4,7.1,59,0.00,,,0.00,WUHU216HW,2013-02-02 16:07:00,
2013-02-02 11:12:00,25.5,13.1,26.56,SE,135,7.6,7.6,59,0.00,,,0.00,WUHU216HW,2013-02-02 16:12:00,
2013-02-02 11:17:00,26.0,13.6,26.56,SSE,158,0.0,7.6,59,0.00,,,0.00,WUHU216HW,2013-02-02 16:17:00,
2013-02-02 11:22:00,26.4,13.5,26.56,SSE,158,3.8,7.6,58,0.00,,,0.00,WUHU216HW,2013-02-02 16:22:00,
2013-02-02 11:27:00,27.1,14.2,26.56,SSE,158,0.0,3.8,58,0.00,,,0.00,WUHU216HW,2013-02-02 16:27:00,
2013-02-02 11:32:00,27.3,14.4,26.55,SE,135,0.0,5.1,58,0.00,,,0.00,WUHU216HW,2013-02-02 16:32:00,
2013-02-02 11:37:00,28.0,15.5,26.56,SE,135,4.9,5.1,59,0.00,,,0.00,WUHU216HW,2013-02-02 16:37:00,
2013-02-02 11:42:00,28.5,16.0,26.55,SE,135,8.0,8.0,59,0.00,,,0.00,WUHU216HW,2013-02-02 16:42:00,
2013-02-02 11:47:00,28.7,16.2,26.55,SSE,158,6.0,8.0,59,0.00,,,0.00,WUHU216HW,2013-02-02 16:47:00,
2013-02-02 11:52:00,29.1,16.5,26.55,SSE,158,0.8,8.0,59,0.00,,,0.00,WUHU216HW,2013-02-02 16:52:00,
2013-02-02 11:57:00,29.4,16.4,26.54,SE,135,1.5,7.6,58,0.00,,,0.00,WUHU216HW,2013-02-02 16:57:00,
2013-02-02 12:02:00,30.0,16.9,26.54,SE,135,5.5,5.5,58,0.00,,,0.00,WUHU216HW,2013-02-02 17:02:00,
2013-02-02 12:07:00,30.3,17.2,26.54,SSE,158,0.0,5.5,58,0.00,,,0.00,WUHU216HW,2013-02-02 17:07:00,
2013-02-02 12:12:00,30.9,18.2,26.54,WSW,248,0.0,5.5,59,0.00,,,0.00,WUHU216HW,2013-02-02 17:12:00,
2013-02-02 12:17:00,31.2,18.6,26.54,West,270,0.0,0.0,59,0.00,,,0.00,WUHU216HW,2013-02-02 17:17:00,
2013-02-02 12:22:00,31.2,18.1,26.54,WNW,293,1.1,4.0,58,0.00,,,0.00,WUHU216HW,2013-02-02 17:22:00,
2013-02-02 12:27:00,31.6,18.1,26.54,NNW,338,2.6,5.3,57,0.00,,,0.00,WUHU216HW,2013-02-02 17:27:00,
2013-02-02 12:32:00,31.2,17.3,26.54,West,270,5.5,6.9,56,0.00,,,0.00,WUHU216HW,2013-02-02 17:32:00,
2013-02-02 12:37:00,31.2,17.3,26.53,NW,315,5.3,7.3,56,0.00,,,0.00,WUHU216HW,2013-02-02 17:37:00,
2013-02-02 12:42:00,30.7,16.8,26.53,WNW,293,4.9,11.6,56,0.00,,,0.00,WUHU216HW,2013-02-02 17:42:00,
2013-02-02 12:47:00,30.3,16.8,26.53,West,270,3.1,11.6,57,0.00,,,0.00,WUHU216HW,2013-02-02 17:47:00,
2013-02-02 12:53:00,30.0,17.3,26.53,WNW,293,12.3,12.3,59,0.00,,,0.00,WUHU216HW,2013-02-02 17:53:00,
2013-02-02 12:58:00,29.6,17.4,26.53,NW,315,8.0,12.3,60,0.00,,,0.00,WUHU216HW,2013-02-02 17:58:00,
2013-02-02 13:03:00,29.1,17.3,26.52,West,270,7.1,12.3,61,0.00,,,0.00,WUHU216HW,2013-02-02 18:03:00,
2013-02-02 13:08:00,28.7,17.7,26.52,West,270,3.1,9.1,63,0.00,,,0.00,WUHU216HW,2013-02-02 18:08:00,
2013-02-02 13:13:00,28.5,17.9,26.51,WNW,293,6.7,7.1,64,0.00,,,0.00,WUHU216HW,2013-02-02 18:13:00,
2013-02-02 13:18:00,28.5,18.3,26.51,WNW,293,0.0,6.7,65,0.00,,,0.00,WUHU216HW,2013-02-02 18:18:00,
2013-02-02 13:23:00,28.2,18.6,26.50,WNW,293,5.8,5.8,67,0.00,,,0.00,WUHU216HW,2013-02-02 18:23:00,
2013-02-02 13:28:00,28.0,18.8,26.50,WNW,293,0.0,5.8,68,0.00,,,0.00,WUHU216HW,2013-02-02 18:28:00,
2013-02-02 13:33:00,28.0,19.2,26.49,WNW,293,0.0,5.8,69,0.00,,,0.00,WUHU216HW,2013-02-02 18:33:00,
2013-02-02 13:38:00,28.0,19.5,26.49,WNW,293,0.0,2.9,70,0.00,,,0.00,WUHU216HW,2013-02-02 18:38:00,
2013-02-02 13:43:00,28.0,19.5,26.49,WNW,293,0.0,4.0,70,0.00,,,0.00,WUHU216HW,2013-02-02 18:43:00,
2013-02-02 13:48:00,27.6,19.2,26.49,WNW,293,0.0,4.0,70,0.00,,,0.00,WUHU216HW,2013-02-02 18:48:00,
2013-02-02 13:53:00,27.6,19.5,26.49,WNW,293,0.0,3.3,71,0.00,,,0.00,WUHU216HW,2013-02-02 18:53:00,
2013-02-02 13:58:00,27.6,19.5,26.48,WNW,293,0.0,0.0,71,0.00,,,0.00,WUHU216HW,2013-02-02 18:58:00,
2013-02-02 14:03:00,27.6,19.8,26.48,WNW,293,0.0,0.0,72,0.00,,,0.00,WUHU216HW,2013-02-02 19:03:00,
2013-02-02 14:08:00,27.3,19.4,26.48,WNW,293,2.2,3.5,72,0.00,,,0.00,WUHU216HW,2013-02-02 19:08:00,
2013-02-02 14:13:00,27.1,19.5,26.48,WNW,293,2.4,3.5,73,0.00,,,0.00,WUHU216HW,2013-02-02 19:13:00,
2013-02-02 14:18:00,27.3,19.7,26.48,WNW,293,0.0,2.4,73,0.00,,,0.00,WUHU216HW,2013-02-02 19:18:00,
2013-02-02 14:23:00,27.3,19.7,26.48,WNW,293,0.0,0.0,73,0.00,,,0.00,WUHU216HW,2013-02-02 19:23:00,
2013-02-02 14:28:00,27.3,20.0,26.48,WNW,293,0.0,0.0,74,0.00,,,0.00,WUHU216HW,2013-02-02 19:28:00,
2013-02-02 14:33:00,27.5,20.2,26.47,SSE,158,1.7,1.7,74,0.00,,,0.00,WUHU216HW,2013-02-02 19:33:00,
2013-02-02 14:38:00,27.6,20.7,26.48,SSE,158,0.0,1.7,75,0.00,,,0.00,WUHU216HW,2013-02-02 19:38:00,
2013-02-02 14:43:00,28.0,21.1,26.48,SSE,158,0.0,0.0,75,0.00,,,0.00,WUHU216HW,2013-02-02 19:43:00,
2013-02-02 14:48:00,28.2,21.1,26.48,ENE,68,0.0,0.0,75,0.00,,,0.00,WUHU216HW,2013-02-02 19:48:00,
2013-02-02 14:53:00,28.2,21.5,26.47,South,180,0.0,0.0,76,0.00,,,0.00,WUHU216HW,2013-02-02 19:53:00,
2013-02-02 14:58:00,28.5,21.9,26.46,East,90,0.0,0.0,76,0.00,,,0.00,WUHU216HW,2013-02-02 19:58:00,
2013-02-02 15:03:00,29.1,22.6,26.47,SSE,158,0.0,0.0,77,0.00,,,0.00,WUHU216HW,2013-02-02 20:03:00,
2013-02-02 15:08:00,29.4,23.1,26.46,SSW,203,0.0,1.3,77,0.00,,,0.00,WUHU216HW,2013-02-02 20:08:00,
2013-02-02 15:13:00,29.6,23.2,26.46,SW,225,0.0,1.3,77,0.00,,,0.00,WUHU216HW,2013-02-02 20:13:00,
2013-02-02 15:18:00,29.8,23.4,26.45,NW,315,1.1,1.1,77,0.00,,,0.00,WUHU216HW,2013-02-02 20:18:00,
2013-02-02 15:23:00,29.8,23.4,26.45,NW,315,0.0,1.1,77,0.00,,,0.00,WUHU216HW,2013-02-02 20:23:00,
2013-02-02 15:29:00,29.8,23.4,26.45,SSE,158,7.6,7.6,77,0.00,,,0.00,WUHU216HW,2013-02-02 20:29:00,
2013-02-02 15:34:00,29.8,23.4,26.45,WSW,248,0.0,9.3,77,0.00,,,0.00,WUHU216HW,2013-02-02 20:34:00,
2013-02-02 15:39:00,29.6,23.6,26.45,SSE,158,5.1,9.3,78,0.00,,,0.00,WUHU216HW,2013-02-02 20:39:00,
2013-02-02 15:44:00,29.4,23.1,26.45,SSE,158,4.6,7.8,77,0.00,,,0.00,WUHU216HW,2013-02-02 20:44:00,
2013-02-02 15:49:00,29.4,23.1,26.45,SSE,158,7.6,7.8,77,0.00,,,0.00,WUHU216HW,2013-02-02 20:49:00,
2013-02-02 15:54:00,29.3,22.9,26.45,SSE,158,5.5,7.6,77,0.00,,,0.00,WUHU216HW,2013-02-02 20:54:00,
2013-02-02 15:59:00,29.1,22.7,26.45,SE,135,0.0,7.6,77,0.00,,,0.00,WUHU216HW,2013-02-02 20:59:00,
2013-02-02 16:04:00,28.9,22.6,26.45,SE,135,7.8,7.8,77,0.00,,,0.00,WUHU216HW,2013-02-02 21:04:00,
2013-02-02 16:09:00,28.9,22.9,26.45,SSE,158,2.0,7.8,78,0.00,,,0.00,WUHU216HW,2013-02-02 21:09:00,
2013-02-02 16:14:00,28.7,23.0,26.45,SSE,158,0.0,3.5,79,0.00,,,0.00,WUHU216HW,2013-02-02 21:14:00,
2013-02-02 16:19:00,28.7,23.0,26.45,SSE,158,4.2,4.2,79,0.00,,,0.00,WUHU216HW,2013-02-02 21:19:00,
2013-02-02 16:24:00,28.7,23.0,26.44,SSE,158,4.2,4.2,79,0.00,,,0.00,WUHU216HW,2013-02-02 21:24:00,
2013-02-02 16:29:00,28.7,23.0,26.44,South,180,8.0,8.2,79,0.00,,,0.00,WUHU216HW,2013-02-02 21:29:00,
2013-02-02 16:34:00,28.5,22.8,26.44,SSE,158,8.0,8.2,79,0.00,,,0.00,WUHU216HW,2013-02-02 21:34:00,
2013-02-02 16:39:00,28.5,22.8,26.44,SSW,203,5.5,11.1,79,0.00,,,0.00,WUHU216HW,2013-02-02 21:39:00,
2013-02-02 16:44:00,28.0,22.3,26.43,SSE,158,6.9,11.1,79,0.00,,,0.00,WUHU216HW,2013-02-02 21:44:00,
2013-02-02 16:49:00,27.6,21.9,26.43,SSE,158,8.7,8.7,79,0.00,,,0.00,WUHU216HW,2013-02-02 21:49:00,
2013-02-02 16:54:00,27.6,21.9,26.43,SSW,203,3.8,8.7,79,0.00,,,0.00,WUHU216HW,2013-02-02 21:54:00,
2013-02-02 16:59:00,27.3,21.6,26.43,SSE,158,7.1,8.7,79,0.00,,,0.00,WUHU216HW,2013-02-02 21:59:00,
2013-02-02 17:04:00,27.3,21.9,26.43,South,180,4.4,7.8,80,0.00,,,0.00,WUHU216HW,2013-02-02 22:04:00,
2013-02-02 17:09:00,27.3,21.9,26.43,South,180,0.0,7.1,80,0.00,,,0.00,WUHU216HW,2013-02-02 22:09:00,
2013-02-02 17:14:00,27.3,21.9,26.44,SSW,203,1.3,4.4,80,0.00,,,0.00,WUHU216HW,2013-02-02 22:14:00,
2013-02-02 17:19:00,27.5,22.3,26.43,South,180,6.0,6.0,81,0.00,,,0.00,WUHU216HW,2013-02-02 22:19:00,
2013-02-02 17:24:00,27.3,22.2,26.43,WSW,248,6.4,6.4,81,0.00,,,0.00,WUHU216HW,2013-02-02 22:24:00,
2013-02-02 17:29:00,27.3,22.2,26.43,South,180,6.0,7.3,81,0.00,,,0.00,WUHU216HW,2013-02-02 22:29:00,
2013-02-02 17:34:00,27.1,22.0,26.43,SSE,158,4.4,7.3,81,0.00,,,0.00,WUHU216HW,2013-02-02 22:34:00,
2013-02-02 17:39:00,27.1,22.0,26.43,South,180,11.8,11.8,81,0.00,,,0.00,WUHU216HW,2013-02-02 22:39:00,
2013-02-02 17:44:00,27.1,22.0,26.43,South,180,7.6,11.8,81,0.00,,,0.00,WUHU216HW,2013-02-02 22:44:00,
2013-02-02 17:49:00,26.9,21.8,26.43,SSE,158,7.1,7.6,81,0.00,,,0.00,WUHU216HW,2013-02-02 22:49:00,
2013-02-02 17:54:00,26.7,21.6,26.43,South,180,4.9,7.6,81,0.00,,,0.00,WUHU216HW,2013-02-02 22:54:00,
2013-02-02 17:59:00,26.6,21.7,26.43,South,180,4.2,7.3,82,0.00,,,0.00,WUHU216HW,2013-02-02 22:59:00,
2013-02-02 18:04:00,26.4,21.5,26.43,SSE,158,2.2,7.3,82,0.00,,,0.00,WUHU216HW,2013-02-02 23:04:00,
2013-02-02 18:09:00,26.4,21.5,26.42,South,180,0.0,4.2,82,0.00,,,0.00,WUHU216HW,2013-02-02 23:09:00,
2013-02-02 18:14:00,26.4,21.5,26.42,SSE,158,2.2,3.5,82,0.00,,,0.00,WUHU216HW,2013-02-02 23:14:00,
2013-02-02 18:19:00,26.4,21.5,26.42,SSW,203,0.0,2.2,82,0.00,,,0.00,WUHU216HW,2013-02-02 23:19:00,
2013-02-02 18:24:00,26.4,21.5,26.42,South,180,0.0,2.6,82,0.00,,,0.00,WUHU216HW,2013-02-02 23:24:00,
2013-02-02 18:29:00,26.7,22.2,26.42,WNW,293,0.0,2.6,83,0.00,,,0.00,WUHU216HW,2013-02-02 23:29:00,
2013-02-02 18:34:00,27.1,22.6,26.42,NW,315,4.2,4.2,83,0.00,,,0.00,WUHU216HW,2013-02-02 23:34:00,
2013-02-02 18:39:00,27.5,22.9,26.42,WNW,293,0.0,4.2,83,0.00,,,0.00,WUHU216HW,2013-02-02 23:39:00,
2013-02-02 18:44:00,28.0,23.5,26.42,NW,315,2.0,4.2,83,0.00,,,0.00,WUHU216HW,2013-02-02 23:44:00,
2013-02-02 18:49:00,28.0,23.5,26.42,WSW,248,7.8,7.8,83,0.00,,,0.00,WUHU216HW,2013-02-02 23:49:00,
2013-02-02 18:54:00,28.0,23.5,26.42,WNW,293,2.9,7.8,83,0.00,,,0.00,WUHU216HW,2013-02-02 23:54:00,
2013-02-02 18:59:00,28.2,23.9,26.42,West,270,2.0,6.0,84,0.00,,,0.00,WUHU216HW,2013-02-02 23:59:00,
2013-02-02 19:04:00,28.2,23.9,26.42,NW,315,0.0,6.0,84,0.00,,,0.00,WUHU216HW,2013-02-03 00:04:00,
2013-02-02 19:09:00,28.2,23.9,26.42,West,270,1.1,7.3,84,0.00,,,0.00,WUHU216HW,2013-02-03 00:09:00,
2013-02-02 19:15:00,28.5,24.3,26.42,West,270,2.0,8.2,84,0.00,,,0.00,WUHU216HW,2013-02-03 00:15:00,
2013-02-02 19:20:00,28.5,24.6,26.42,WNW,293,12.0,12.0,85,0.00,,,0.00,WUHU216HW,2013-02-03 00:20:00,
2013-02-02 19:25:00,28.5,24.6,26.41,WNW,293,6.7,12.0,85,0.00,,,0.00,WUHU216HW,2013-02-03 00:25:00,
2013-02-02 19:30:00,28.5,24.6,26.42,West,270,8.7,12.0,85,0.00,,,0.00,WUHU216HW,2013-02-03 00:30:00,
2013-02-02 19:35:00,28.5,24.6,26.41,West,270,1.3,8.7,85,0.00,,,0.00,WUHU216HW,2013-02-03 00:35:00,
2013-02-02 19:40:00,28.5,24.6,26.41,West,270,4.4,8.7,85,0.00,,,0.00,WUHU216HW,2013-02-03 00:40:00,
2013-02-02 19:45:00,28.4,24.4,26.42,WNW,293,6.9,6.9,85,0.00,,,0.00,WUHU216HW,2013-02-03 00:45:00,
2013-02-02 19:50:00,28.2,24.2,26.41,NW,315,3.8,6.9,85,0.00,,,0.00,WUHU216HW,2013-02-03 00:50:00,
2013-02-02 19:55:00,28.2,24.2,26.40,WNW,293,7.3,8.7,85,0.00,,,0.00,WUHU216HW,2013-02-03 00:55:00,
2013-02-02 20:00:00,28.2,24.2,26.41,WNW,293,6.0,8.7,85,0.00,,,0.00,WUHU216HW,2013-02-03 01:00:00,
2013-02-02 20:05:00,28.2,24.2,26.41,WNW,293,4.2,8.2,85,0.00,,,0.00,WUHU216HW,2013-02-03 01:05:00,
2013-02-02 20:10:00,28.2,24.5,26.41,NW,315,5.3,10.2,86,0.00,,,0.00,WUHU216HW,2013-02-03 01:10:00,
2013-02-02 20:15:00,28.2,24.5,26.42,NNW,338,2.0,85.8,86,0.00,,,0.00,WUHU216HW,2013-02-03 01:15:00,
2013-02-02 20:20:00,28.2,24.5,26.42,NW,315,5.8,85.8,86,0.00,,,0.00,WUHU216HW,2013-02-03 01:20:00,
2013-02-02 20:25:00,28.2,24.5,26.42,West,270,1.7,8.2,86,0.00,,,0.00,WUHU216HW,2013-02-03 01:25:00,
2013-02-02 20:30:00,28.0,24.3,26.42,NW,315,4.9,7.1,86,0.00,,,0.00,WUHU216HW,2013-02-03 01:30:00,
2013-02-02 20:35:00,28.0,24.3,26.41,NW,315,7.3,7.3,86,0.00,,,0.00,WUHU216HW,2013-02-03 01:35:00,
2013-02-02 20:40:00,28.0,24.3,26.42,WNW,293,5.8,8.2,86,0.00,,,0.00,WUHU216HW,2013-02-03 01:40:00,
2013-02-02 20:45:00,27.8,24.1,26.41,West,270,7.6,8.2,86,0.00,,,0.00,WUHU216HW,2013-02-03 01:45:00,
2013-02-02 20:50:00,27.6,24.0,26.42,NNW,338,6.9,8.0,86,0.00,,,0.00,WUHU216HW,2013-02-03 01:50:00,
2013-02-02 20:55:00,27.6,24.0,26.42,WNW,293,15.2,15.2,86,0.00,,,0.00,WUHU216HW,2013-02-03 01:55:00,
2013-02-02 21:00:00,27.6,24.0,26.42,WNW,293,12.5,15.2,86,0.00,,,0.00,WUHU216HW,2013-02-03 02:00:00,
2013-02-02 21:05:00,27.5,23.8,26.42,WNW,293,15.4,15.4,86,0.00,,,0.00,WUHU216HW,2013-02-03 02:05:00,
2013-02-02 21:10:00,27.3,23.6,26.43,NNW,338,6.7,15.4,86,0.00,,,0.00,WUHU216HW,2013-02-03 02:10:00,
2013-02-02 21:15:00,27.3,23.6,26.42,WNW,293,7.8,7.8,86,0.00,,,0.00,WUHU216HW,2013-02-03 02:15:00,
2013-02-02 21:20:00,27.3,23.6,26.42,West,270,7.8,12.3,86,0.00,,,0.00,WUHU216HW,2013-02-03 02:20:00,
2013-02-02 21:25:00,27.1,23.4,26.42,NW,315,12.7,12.7,86,0.00,,,0.00,WUHU216HW,2013-02-03 02:25:00,
2013-02-02 21:30:00,27.1,23.4,26.42,NW,315,9.8,12.7,86,0.00,,,0.00,WUHU216HW,2013-02-03 02:30:00,
2013-02-02 21:35:00,27.1,23.4,26.42,WNW,293,8.7,12.7,86,0.00,,,0.00,WUHU216HW,2013-02-03 02:35:00,
2013-02-02 21:40:00,27.1,23.4,26.42,NW,315,15.6,15.6,86,0.00,,,0.00,WUHU216HW,2013-02-03 02:40:00,
2013-02-02 21:46:00,26.9,23.5,26.42,West,270,10.2,15.6,87,0.00,,,0.00,WUHU216HW,2013-02-03 02:46:00,
2013-02-02 21:51:00,26.9,23.5,26.41,NW,315,11.1,11.1,87,0.00,,,0.00,WUHU216HW,2013-02-03 02:51:00,
2013-02-02 21:56:00,26.9,23.5,26.42,NW,315,11.1,14.9,87,0.00,,,0.00,WUHU216HW,2013-02-03 02:56:00,
2013-02-02 22:01:00,26.9,23.5,26.42,NW,315,10.2,19.2,87,0.00,,,0.00,WUHU216HW,2013-02-03 03:01:00,
2013-02-02 22:06:00,26.9,23.5,26.42,WNW,293,8.0,19.2,87,0.00,,,0.00,WUHU216HW,2013-02-03 03:06:00,
2013-02-02 22:11:00,26.9,23.5,26.41,WNW,293,8.0,10.2,87,0.00,,,0.00,WUHU216HW,2013-02-03 03:11:00,
2013-02-02 22:16:00,26.9,23.3,26.41,NW,315,14.5,14.5,87,0.00,,,0.00,WUHU216HW,2013-02-03 03:16:00,
2013-02-02 22:21:00,26.7,23.3,26.40,WNW,293,11.8,14.5,87,0.00,,,0.00,WUHU216HW,2013-02-03 03:21:00,
2013-02-02 22:26:00,26.7,23.3,26.40,WNW,293,14.9,14.9,87,0.00,,,0.00,WUHU216HW,2013-02-03 03:26:00,
2013-02-02 22:31:00,26.7,23.3,26.41,NW,315,12.0,14.9,87,0.00,,,0.00,WUHU216HW,2013-02-03 03:31:00,
2013-02-02 22:36:00,26.7,23.3,26.40,NW,315,10.2,14.5,87,0.00,,,0.00,WUHU216HW,2013-02-03 03:36:00,
2013-02-02 22:41:00,26.7,23.3,26.41,West,270,6.9,12.0,87,0.00,,,0.00,WUHU216HW,2013-02-03 03:41:00,
2013-02-02 22:46:00,26.7,23.3,26.40,WNW,293,11.6,11.6,87,0.00,,,0.00,WUHU216HW,2013-02-03 03:46:00,
2013-02-02 22:51:00,26.6,23.2,26.40,NW,315,21.9,21.9,87,0.00,,,0.00,WUHU216HW,2013-02-03 03:51:00,
2013-02-02 22:56:00,26.7,23.3,26.40,West,270,9.1,21.9,87,0.00,,,0.00,WUHU216HW,2013-02-03 03:56:00,
2013-02-02 23:01:00,26.7,23.3,26.40,WNW,293,8.9,21.9,87,0.00,,,0.00,WUHU216HW,2013-02-03 04:01:00,
2013-02-02 23:06:00,26.7,23.3,26.40,NW,315,12.0,12.9,87,0.00,,,0.00,WUHU216HW,2013-02-03 04:06:00,
2013-02-02 23:11:00,26.7,23.3,26.39,NW,315,12.5,12.9,87,0.00,,,0.00,WUHU216HW,2013-02-03 04:11:00,
2013-02-02 23:16:00,26.6,23.2,26.39,WNW,293,13.4,13.4,87,0.00,,,0.00,WUHU216HW,2013-02-03 04:16:00,
2013-02-02 23:21:00,26.6,23.5,26.39,WNW,293,15.2,15.2,88,0.00,,,0.00,WUHU216HW,2013-02-03 04:21:00,
2013-02-02 23:26:00,26.6,23.5,26.39,WNW,293,16.1,16.1,88,0.00,,,0.00,WUHU216HW,2013-02-03 04:26:00,
2013-02-02 23:31:00,26.6,23.5,26.39,NW,315,17.6,21.0,88,0.00,,,0.00,WUHU216HW,2013-02-03 04:31:00,
2013-02-02 23:36:00,26.6,23.5,26.39,NW,315,7.3,21.0,88,0.00,,,0.00,WUHU216HW,2013-02-03 04:36:00,
2013-02-02 23:41:00,26.6,23.5,26.38,WNW,293,21.4,21.4,88,0.00,,,0.00,WUHU216HW,2013-02-03 04:41:00,
2013-02-02 23:46:00,26.6,23.5,26.38,WNW,293,11.8,23.4,88,0.00,,,0.00,WUHU216HW,2013-02-03 04:46:00,
2013-02-02 23:51:00,26.4,23.3,26.37,NW,315,18.7,23.4,88,0.00,,,0.00,WUHU216HW,2013-02-03 04:51:00,
2013-02-02 23:56:00,26.4,23.3,26.37,NW,315,19.6,19.6,88,0.00,,,0.00,WUHU216HW,2013-02-03 04:56:00,